Regional Weather Roundup
Issued by NWS

Home | Current Version | Previous Version | Graphics & Text | Print | Product List | Glossary Off
Versions: 1 2 3 4 5 6 7 8 9 10 11 12 13 14 15 16 17 18 19 20 21 22 23 24 25 26 27 28 29 30 31 32 33 34 35 36 37 38 39 40 41 42 43 44 45 46 47 48 49 50

000
ASUS43 KMKX 181021
RWRWI

WISCONSIN REGIONAL WEATHER ROUNDUP
NATIONAL WEATHER SERVICE MILWAUKEE/SULLIVAN WI
400 AM CST WED JAN 18 2017

NOTE: "FAIR" INDICATES FEW OR NO CLOUDS BELOW 12,000 FEET WITH NO
SIGNIFICANT WEATHER AND/OR OBSTRUCTIONS TO VISIBILITY.

WIZ001-002-006>008-014>016-023>028-181100-
NORTHWEST WISCONSIN

CITY           SKY/WX    TMP DP  RH WIND       PRES   REMARKS
SUPERIOR ARPT  CLOUDY    26  23  89 SW9       29.85F WCI  16
ASHLAND        CLOUDY    28  24  85 SW12      29.86S WCI  18
HAYWARD        CLOUDY    29  26  89 S14       29.90F WCI  18
SIREN          CLOUDY    28  26  93 S7        29.91F WCI  20
CUMBERLAND     CLOUDY    28  27  93 SW12      29.93S WCI  18
RICE LAKE      CLOUDY    29  28  93 SW8       29.96R WCI  21
CHETEK         CLOUDY    30  28  93 SW6       29.96R WCI  24
LADYSMITH      CLOUDY    31  30  98 SW8       29.96R WCI  23
EAU CLAIRE     CLOUDY    31  29  92 SW9       29.98R WCI  23
MENOMONIE      CLOUDY    30  28  92 MISG      29.98S
NEW RICHMOND   CLOUDY    27  27  97 SW8       29.96S WCI  19
OSCEOLA        CLOUDY    28  28 100 S8        29.98S WCI  20
$$

WIZ003>005-009-010-017-018-181100-
NORTH CENTRAL WISCONSIN

CITY           SKY/WX    TMP DP  RH WIND       PRES   REMARKS
MANITOWISH WTR NOT AVBL
ARBOR VITAE    CLOUDY    26  24  93 SW5       29.88S FOG     WCI  20
WOODRUFF       CLOUDY    26  24  93 SW5       29.88S FOG     WCI  20
RHINELANDER    FOG       28  27  96 SW10      29.90R VSB 1/2 WCI  19
EAGLE RIVER    CLOUDY    17  16  96 SW5       29.88R FOG     WCI  10
LAND O LAKES   CLEAR     17  15  95 CALM      29.87F
PHILLIPS       CLOUDY   N/A N/A N/A SW7       29.91R HAZE
TOMAHAWK       CLOUDY    27  26  96 CALM      29.92R FOG
MEDFORD        FOG       28  28  99 SW8       29.93S VSB 1/4 WCI  20
MERRILL        FOG       28  28 100 CALM        N/A  VSB 3/4
$$

WIZ029-030-035-036-043>047-181100-
CENTRAL WISCONSIN

CITY           SKY/WX    TMP DP  RH WIND       PRES   REMARKS
WAUSAU         FOG       28  28 100 SW8       29.94S VSB 3/4 WCI  20
MOSINEE        FOG       30  30 100 SW8       29.97S VSB 1/4 WCI  23
MARSHFIELD     FOG       30  29  96 SW12      29.96R VSB 1/4 WCI  20
STEVENS POINT  FOG       30  30 100 SW6       29.98S VSB 1/2 WCI  24
WAUPACA        CLOUDY    33  32  95 CALM      29.99S FOG
WAUTOMA        FOG       32  32 100 SW10      30.01S VSB 1   WCI  24
WISC RAPIDS    FOG       32  32 100 SW12      30.00S VSB 3/4 WCI  23
CAMP DOUGLAS   CLOUDY    32  32 100 SW5       30.01S FOG     WCI  27
$$

WIZ011>013-019>022-031-037>040-048>050-181100-
NORTHEAST WISCONSIN

CITY           SKY/WX    TMP DP  RH WIND       PRES   REMARKS
ANTIGO         FOG       24  24  99 SW6       29.93S VSB 1/2 WCI  17
SHAWANO        CLOUDY    33  32  96 CALM      29.96S FOG
OCONTO         CLOUDY    31  31 100 SW5       29.95F VSB 1/2 WCI  26
STURGEON BAY   FOG       32  31  96 SW7       29.96S VSB 1/4 WCI  26
GREEN BAY      FOG       34  34 100 SW9       29.98R VSB 1   WCI  27
MANITOWOC      FOG       33  32  96 MISG      29.99S VSB 1/2
APPLETON       FOG       32  32 100 W7        29.97S VSB 1/4 WCI  26
CLINTONVILLE   CLOUDY    32  32 100 SW9       29.98S FOG     WCI  24
OSHKOSH        FOG       32  32 100 W8        29.99S VSB 1/2 WCI  25
$$

WIZ032>034-041-042-053>061-181100-
SOUTHWEST WISCONSIN

CITY           SKY/WX    TMP DP  RH WIND       PRES   REMARKS
LA CROSSE      CLOUDY    35  30  82 S9        30.04S WCI  28
SPARTA         CLOUDY    31  31 100 SW5       30.03S FOG     WCI  26
VIROQUA        CLOUDY    31  31 100 SW10      30.02S VSB 3/4 WCI  22
BOSCOBEL       CLOUDY    34  32  92 SW7       30.07F WCI  28
PRAIRIE DU CHI CLOUDY    33  32  95 SW13      30.08S WCI  24
PLATTEVILLE    CLOUDY    32  32 100 SW12      30.08S VSB 3/4 WCI  23
$$

WIZ056-057-062-063-064-067-068-181100-
SOUTH CENTRAL WISCONSIN

CITY           SKY/WX    TMP DP  RH WIND       PRES   REMARKS
REEDSBURG      FOG       32  32 100 W12       30.03S VSB 1   WCI  23
BARABOO/DELLS  FOG       32  32 100 SW9       30.03R VSB 1/4 WCI  24
LONE ROCK      CLOUDY    32  31  96 W9        30.07R WCI  24
MINERAL POINT  FOG       34  34 100 W12       30.05S VSB 1/2 WCI  25
MADISON        CLOUDY    33  32  96 VRB7      30.05R FOG     WCI  27
MIDDLETON      CLOUDY    34  34 100 W9        30.05R WCI  27
WATERTOWN      CLOUDY    33  33 100 SW6       30.03R FOG     WCI  28
MONROE         CLOUDY    32  32 100 W16       30.06R FOG     WCI  21
JANESVILLE     CLOUDY    36  36 100 W9        30.06R FOG     WCI  29
$$

WIZ051-052-058>065-066-070>072-181100-
SOUTHEAST WISCONSIN

CITY           SKY/WX    TMP DP  RH WIND       PRES   REMARKS
MILWAUKEE      CLOUDY    36  33  89 SW8       30.03S FOG     WCI  30
WAUKESHA       CLOUDY    32  32 100 W8        30.04R FOG     WCI  25
MILWAUKEE/TIMM CLOUDY    34  32  93 W8        30.04R FOG     WCI  27
RACINE         CLOUDY    35  33  92 W8        30.05R WCI  29
KENOSHA        CLOUDY    34  33  96 SW9       30.05R FOG     WCI  27
FOND DU LAC    FOG       33  30  88 W10       30.01R VSB 1/2 WCI  25
SHEBOYGAN      CLOUDY    34  32  92 W9        30.00R FOG     WCI  27
WEST BEND      CLOUDY    34  34 100 W7        30.01R FOG     WCI  28
JUNEAU         FOG       33  32  99 SW7       30.03R VSB 1/4 WCI  26
$$

LSZ147-162-181100-
LAKE SUPERIOR

STATION/POSITION TIME  TEMP    WIND        PRES    WAVE
                       AIR SEA DIR/SP/G            HT/PER
                 (UTC) (F)     (DEG/KT/KT) (MB)    (FT/S)
DEVILS ISLAND    1000   29     190/  5/  8 1010.2F
PORT WING        0930   29     200/  7/ 11 1010.5F
SAXON HARBOR     0940   31     200/ 10/ 16 1010.8S
$$

LMZ867-665-643>646-181100-
LAKE MICHIGAN

STATION/POSITION TIME  TEMP    WIND        PRES    WAVE
                       AIR SEA DIR/SP/G            HT/PER
                 (UTC) (F)     (DEG/KT/KT) (MB)    (FT/S)
NORTHPORT PIER   1000   33      CALM  /  9 1013.9
SISTER BAY       0950   33     280/  4/  6   N/A
ALGOMA LAKESHORE 0953           CALM  /  5   N/A
KEWAUNEE LAKESHO 0954   33     240/  3/  5 1014.6R
SHEBOYGAN LAKESH 1000   35     250/  6/  7 1016.3R
PORT WASHINGTON  0940   35     280/  6/  9 1016.9R
MILWAUKEE LAKESH 1000   36     270/  7/  9   N/A
KENOSHA   LAKESH 1000   35     240/  9/ 12 1017.6
$$

TC  - TEMPERATURE IN CELSIUS
VSB - VISIBILITY IN STATUTE MILES
WCI - WIND CHILL INDEX
HX  - HEAT INDEX




USA.gov is the U.S. government's official web portal to all federal, state and local government web resources and services.